📊 Raw Sensor Data
Showing records 33076 to 33100 of 84,752 total
| ID | Distance (ft) | Battery V | Battery A | Int Temp (°F) | Int Humid (%) | Ext Temp (°F) | Solar V | RSSI | SNR | Time Stamp |
|---|---|---|---|---|---|---|---|---|---|---|
| 51689 | 14.8 | 4.01 | 5 | 80 | 41 | 80 | 5.10 | -73 | 8 | 09/11/2025 11:00 AM |
| 51688 | 14.8 | 4.01 | 5 | 79 | 41 | 79 | 5.10 | -73 | 7 | 09/11/2025 10:45 AM |
| 51687 | 14.7 | 4.01 | 5 | 76 | 42 | 77 | 5.10 | -72 | 8 | 09/11/2025 10:30 AM |
| 51686 | 14.6 | 4.01 | 5 | 73 | 42 | 70 | 5.10 | -73 | 8 | 09/11/2025 10:15 AM |
| 51685 | 14.6 | 4.01 | 5 | 73 | 41 | 68 | 5.10 | -73 | 8 | 09/11/2025 10:00 AM |
| 51684 | 14.6 | 4.01 | 0 | 73 | 41 | 72 | 5.10 | -74 | 8 | 09/11/2025 09:45 AM |
| 51683 | 14.6 | 4.01 | 5 | 70 | 41 | 71 | 5.10 | -73 | 8 | 09/11/2025 09:30 AM |
| 51682 | 13.7 | 4.01 | 0 | 68 | 41 | 68 | 5.10 | -73 | 8 | 09/11/2025 09:15 AM |
| 51681 | 13.8 | 4.04 | 5 | 67 | 41 | 72 | 5.10 | -73 | 8 | 09/11/2025 09:00 AM |
| 51680 | 13.8 | 4.01 | 5 | 65 | 41 | 73 | 5.10 | -73 | 7 | 09/11/2025 08:45 AM |
| 51679 | 14.7 | 4.03 | 5 | 63 | 41 | 72 | 5.10 | -73 | 8 | 09/11/2025 08:30 AM |
| 51678 | 14.5 | 4.01 | 0 | 61 | 41 | 70 | 5.10 | -72 | 8 | 09/11/2025 08:15 AM |
| 51677 | 14.5 | 4.13 | 5 | 60 | 41 | 66 | 5.10 | -71 | 8 | 09/11/2025 08:00 AM |
| 51676 | 14.5 | 4.09 | 51 | 58 | 42 | 65 | 4.50 | -72 | 8 | 09/11/2025 07:45 AM |
| 51675 | 14.5 | 4.02 | 32 | 56 | 43 | 62 | 4.50 | -73 | 8 | 09/11/2025 07:30 AM |
| 51674 | 14.5 | 4.01 | 7 | 54 | 43 | 57 | 4.50 | -73 | 9 | 09/11/2025 07:15 AM |
| 51673 | 14.5 | 3.99 | -6 | 53 | 43 | 54 | 4.50 | -72 | 9 | 09/11/2025 07:00 AM |
| 51672 | 14.5 | 3.93 | -10 | 52 | 44 | 53 | 4.00 | -73 | 9 | 09/11/2025 06:45 AM |
| 51671 | 14.5 | 3.94 | -5 | 53 | 44 | 54 | 0.80 | -73 | 8 | 09/11/2025 06:30 AM |
| 51670 | 14.5 | 3.94 | -5 | 53 | 44 | 54 | 0.00 | -72 | 8 | 09/11/2025 06:15 AM |
| 51669 | 14.4 | 3.94 | -5 | 53 | 44 | 54 | 0.00 | -71 | 8 | 09/11/2025 06:00 AM |
| 51668 | 14.5 | 3.99 | -5 | 53 | 44 | 54 | 0.00 | -72 | 8 | 09/11/2025 05:45 AM |
| 51667 | 14.5 | 3.94 | -5 | 54 | 44 | 54 | 0.00 | -71 | 7 | 09/11/2025 05:30 AM |
| 51666 | 14.5 | 3.94 | -5 | 54 | 44 | 55 | 0.00 | -72 | 8 | 09/11/2025 05:15 AM |
| 51665 | 14.4 | 3.94 | -5 | 54 | 44 | 55 | 0.00 | -71 | 8 | 09/11/2025 05:00 AM |